TimeEST,TemperatureF,Dew PointF,Humidity,Sea Level PressureIn,VisibilityMPH,Wind Direction,Wind SpeedMPH,Gust SpeedMPH,PrecipitationIn,Events,Conditions,WindDirDegrees,DateUTC
12:15 AM,21.9,21.9,100,30.36,10.0,Calm,Calm,-,N/A,,Clear,0,2013-12-27 05:15:00
12:35 AM,22.1,22.1,100,30.36,10.0,Calm,Calm,-,N/A,,Clear,0,2013-12-27 05:35:00
12:55 AM,22.6,22.6,100,30.36,10.0,Calm,Calm,-,N/A,,Clear,0,2013-12-27 05:55:00
1:15 AM,24.3,23.4,96,30.35,10.0,Calm,Calm,-,N/A,,Clear,0,2013-12-27 06:15:00
1:35 AM,21.6,21.6,100,30.36,10.0,Calm,Calm,-,N/A,,Clear,0,2013-12-27 06:35:00
1:55 AM,21.6,21.6,100,30.36,10.0,Calm,Calm,-,N/A,,Clear,0,2013-12-27 06:55:00
2:15 AM,21.6,21.6,100,30.36,10.0,Calm,Calm,-,N/A,,Clear,0,2013-12-27 07:15:00
2:35 AM,21.4,21.4,100,30.38,10.0,Calm,Calm,-,N/A,,Clear,0,2013-12-27 07:35:00
2:55 AM,21.9,21.9,100,30.38,10.0,Calm,Calm,-,N/A,,Clear,0,2013-12-27 07:55:00
3:15 AM,20.7,20.7,100,30.38,10.0,Calm,Calm,-,N/A,,Clear,0,2013-12-27 08:15:00
3:35 AM,21.0,21.0,100,30.38,10.0,Calm,Calm,-,N/A,,Clear,0,2013-12-27 08:35:00
3:55 AM,21.2,21.2,100,30.38,10.0,Calm,Calm,-,N/A,,Clear,0,2013-12-27 08:55:00
4:15 AM,20.5,20.5,100,30.38,10.0,Calm,Calm,-,N/A,,Clear,0,2013-12-27 09:15:00
4:35 AM,20.3,20.3,100,30.38,10.0,Calm,Calm,-,N/A,,Clear,0,2013-12-27 09:35:00
4:55 AM,20.7,20.7,100,30.38,10.0,Calm,Calm,-,N/A,,Clear,0,2013-12-27 09:55:00
5:15 AM,20.7,20.7,100,30.38,10.0,Calm,Calm,-,N/A,,Clear,0,2013-12-27 10:15:00
5:35 AM,20.7,20.7,100,30.38,10.0,Calm,Calm,-,N/A,,Clear,0,2013-12-27 10:35:00
5:55 AM,20.1,20.1,100,30.39,10.0,Calm,Calm,-,N/A,,Clear,0,2013-12-27 10:55:00
6:15 AM,20.8,20.8,100,30.39,10.0,Calm,Calm,-,N/A,,Clear,0,2013-12-27 11:15:00
6:35 AM,20.5,20.5,100,30.39,10.0,Calm,Calm,-,N/A,,Clear,0,2013-12-27 11:35:00
6:55 AM,20.3,20.3,100,30.39,10.0,Calm,Calm,-,N/A,,Clear,0,2013-12-27 11:55:00
7:15 AM,20.1,20.1,100,30.39,10.0,Calm,Calm,-,N/A,,Clear,0,2013-12-27 12:15:00
7:35 AM,19.8,19.8,100,30.40,10.0,Calm,Calm,-,N/A,,Clear,0,2013-12-27 12:35:00
7:55 AM,21.2,21.2,100,30.40,10.0,Calm,Calm,-,N/A,,Clear,0,2013-12-27 12:55:00
8:15 AM,23.7,23.7,100,30.40,10.0,Calm,Calm,-,N/A,,Clear,0,2013-12-27 13:15:00
8:35 AM,26.4,26.4,100,30.41,10.0,Calm,Calm,-,N/A,,Clear,0,2013-12-27 13:35:00
8:55 AM,28.2,26.8,94,30.42,10.0,Calm,Calm,-,N/A,,Clear,0,2013-12-27 13:55:00
9:15 AM,31.1,28.4,90,30.42,10.0,Calm,Calm,-,N/A,,Clear,0,2013-12-27 14:15:00
9:35 AM,33.3,28.6,83,30.42,10.0,Calm,Calm,-,N/A,,Clear,0,2013-12-27 14:35:00
9:55 AM,36.3,28.8,74,30.43,10.0,Calm,Calm,-,N/A,,Clear,0,2013-12-27 14:55:00
10:15 AM,38.5,28.4,67,30.43,10.0,SW,4.6,-,N/A,,Clear,220,2013-12-27 15:15:00
10:35 AM,40.1,28.0,62,30.43,10.0,SSW,6.9,-,N/A,,Clear,210,2013-12-27 15:35:00
10:55 AM,42.6,28.4,57,30.42,10.0,SSW,4.6,-,N/A,,Clear,210,2013-12-27 15:55:00
11:15 AM,43.7,27.3,53,30.41,10.0,SSW,5.8,-,N/A,,Clear,200,2013-12-27 16:15:00
11:35 AM,45.5,27.7,50,30.40,10.0,SW,5.8,-,N/A,,Clear,220,2013-12-27 16:35:00
11:55 AM,46.8,27.7,47,30.39,10.0,SW,6.9,-,N/A,,Clear,220,2013-12-27 16:55:00
12:15 PM,48.9,28.0,44,30.38,10.0,SSW,8.1,-,N/A,,Clear,200,2013-12-27 17:15:00
12:35 PM,49.1,27.3,43,30.37,10.0,SSW,8.1,-,N/A,,Clear,210,2013-12-27 17:35:00
12:55 PM,50.9,28.6,42,30.36,10.0,SW,10.4,-,N/A,,Scattered Clouds,220,2013-12-27 17:55:00
1:15 PM,51.8,28.8,41,30.35,10.0,South,8.1,-,N/A,,Mostly Cloudy,190,2013-12-27 18:15:00
1:35 PM,51.6,27.7,40,30.34,10.0,SW,5.8,-,N/A,,Mostly Cloudy,230,2013-12-27 18:35:00
1:55 PM,52.3,28.4,40,30.33,10.0,SW,8.1,-,N/A,,Scattered Clouds,230,2013-12-27 18:55:00
2:15 PM,52.7,28.9,40,30.33,10.0,SW,4.6,-,N/A,,Clear,220,2013-12-27 19:15:00
2:35 PM,52.9,29.1,40,30.32,10.0,SW,4.6,-,N/A,,Clear,220,2013-12-27 19:35:00
2:55 PM,52.9,28.6,39,30.32,10.0,SW,8.1,-,N/A,,Clear,220,2013-12-27 19:55:00
3:15 PM,53.2,28.9,39,30.32,10.0,SSW,4.6,-,N/A,,Clear,210,2013-12-27 20:15:00
3:35 PM,52.2,28.4,40,30.32,10.0,SSW,6.9,-,N/A,,Clear,210,2013-12-27 20:35:00
3:55 PM,51.8,28.0,40,30.32,10.0,SW,4.6,-,N/A,,Clear,220,2013-12-27 20:55:00
4:15 PM,50.5,27.7,41,30.32,10.0,SSW,5.8,-,N/A,,Clear,200,2013-12-27 21:15:00
4:35 PM,48.9,27.0,43,30.32,10.0,South,4.6,-,N/A,,Clear,190,2013-12-27 21:35:00
4:55 PM,46.2,26.2,46,30.32,10.0,South,3.5,-,N/A,,Clear,180,2013-12-27 21:55:00
5:15 PM,43.9,25.9,49,30.32,10.0,Calm,Calm,-,N/A,,Clear,0,2013-12-27 22:15:00
5:35 PM,36.7,26.2,66,30.32,10.0,Calm,Calm,-,N/A,,Clear,0,2013-12-27 22:35:00
5:55 PM,33.3,26.6,77,30.33,10.0,Calm,Calm,-,N/A,,Clear,0,2013-12-27 22:55:00
6:15 PM,32.2,26.2,79,30.33,10.0,Calm,Calm,-,N/A,,Clear,0,2013-12-27 23:15:00
6:35 PM,29.7,27.0,90,30.34,10.0,Calm,Calm,-,N/A,,Clear,0,2013-12-27 23:35:00
6:55 PM,30.9,26.1,82,30.34,10.0,Calm,Calm,-,N/A,,Clear,0,2013-12-27 23:55:00
7:15 PM,29.1,26.1,88,30.34,10.0,Calm,Calm,-,N/A,,Clear,0,2013-12-28 00:15:00
7:35 PM,30.4,26.6,86,30.34,10.0,Calm,Calm,-,N/A,,Clear,0,2013-12-28 00:35:00
7:55 PM,27.5,24.8,90,30.34,10.0,Calm,Calm,-,N/A,,Clear,0,2013-12-28 00:55:00
8:15 PM,28.8,26.4,91,30.34,10.0,Calm,Calm,-,N/A,,Clear,0,2013-12-28 01:15:00
8:35 PM,26.6,25.5,96,30.35,10.0,Calm,Calm,-,N/A,,Clear,0,2013-12-28 01:35:00
8:55 PM,27.0,26.6,99,30.35,10.0,Calm,Calm,-,N/A,,Clear,0,2013-12-28 01:55:00
9:15 PM,26.4,26.4,100,30.35,10.0,Calm,Calm,-,N/A,,Clear,0,2013-12-28 02:15:00
9:35 PM,25.7,25.7,100,30.35,10.0,Calm,Calm,-,N/A,,Clear,0,2013-12-28 02:35:00
9:55 PM,25.3,24.6,97,30.35,10.0,Calm,Calm,-,N/A,,Clear,0,2013-12-28 02:55:00
10:15 PM,25.7,24.8,96,30.35,10.0,Calm,Calm,-,N/A,,Clear,0,2013-12-28 03:15:00
10:35 PM,24.3,24.3,100,30.34,10.0,Calm,Calm,-,N/A,,Clear,0,2013-12-28 03:35:00
10:55 PM,24.6,24.6,100,30.34,10.0,Calm,Calm,-,N/A,,Clear,0,2013-12-28 03:55:00
11:15 PM,23.2,23.2,100,30.34,10.0,Calm,Calm,-,N/A,,Clear,0,2013-12-28 04:15:00
11:35 PM,23.9,23.9,100,30.34,10.0,Calm,Calm,-,N/A,,Clear,0,2013-12-28 04:35:00
11:55 PM,25.0,25.0,100,30.34,10.0,Calm,Calm,-,N/A,,Clear,0,2013-12-28 04:55:00